Ely, MN

5:08 AM CDT on August 30, 2016 (GMT -0500)
Ely Municipal

Weather History for KELO - April, 2012

Change the Weather History Date:

Sunday, April 8, 2012

  Actual Average Record
Temperature  
Mean Temperature 40 °F -  
Max Temperature 51 °F 43 °F 64 °F (2005)
Min Temperature 30 °F 23 °F 6 °F (2016)
Degree Days  
Heating Degree Days 24    
Moisture  
Dew Point 19 °F    
Average Humidity 47    
Maximum Humidity 75    
Minimum Humidity 21    
Precipitation  
Precipitation 0.00 in - - ()
Sea Level Pressure  
Sea Level Pressure 29.98 in    
Wind  
Wind Speed 13 mph (West)    
Max Wind Speed 23 mph    
Max Gust Speed 37 mph    
Visibility 10 miles    
Events      
Averages and records for this station are not official NWS values.
T = Trace of Precipitation, MM = Missing Value Source: NWS Daily Summary

Daily Weather History Graph

Daily Weather History Graph

Search for Another Location

Airport or City:

Trip Planner

Search our weather history database for the weather conditions in past years. The results will help you decide how hot, cold, wet, or windy it might be!

Date:

Astronomy

Apr. 08, 2012 Rise Set
Actual Time 6:30 AM CDT 7:48 PM CDT
Civil Twilight 5:58 AM CDT 8:20 PM CDT
Nautical Twilight 5:20 AM CDT 8:58 PM CDT
Astronomical Twilight 4:39 AM CDT 9:40 PM CDT
Moon 10:51 PM CDT (4/8) 7:14 AM CDT (4/8)
Length of Visible Light 14h 21m
Length of Day
13h 17m
Waning Gibbous, 95% of the Moon is Illuminated
Apr 8
Waning Gibbous
Apr 13
Last Quarter
Apr 21
New
Apr 29
First Quarter
May 5
Full

Hourly Weather History & Observations

Time (CDT) Temp. Windchill Dew Point Humidity Pressure Visibility Wind Dir Wind Speed Gust Speed Precip Events Conditions
12:13 AM 37.4 °F 29.8 °F 30.2 °F 75% 29.96 in 10.0 mi West 11.5 mph - N/A   Overcast
12:32 AM 37.4 °F 30.8 °F 30.2 °F 75% 29.96 in 10.0 mi West 9.2 mph - N/A   Overcast
12:53 AM 37.4 °F 30.8 °F 28.4 °F 70% 29.96 in 10.0 mi West 9.2 mph - N/A   Mostly Cloudy
1:13 AM 37.4 °F 28.5 °F 26.6 °F 65% 29.96 in 10.0 mi West 15.0 mph 21.9 mph N/A   Overcast
1:32 AM 37.4 °F 29.3 °F 26.6 °F 65% 29.97 in 10.0 mi West 12.7 mph 25.3 mph N/A   Mostly Cloudy
1:53 AM 35.6 °F 27.1 °F 24.8 °F 65% 29.97 in 10.0 mi West 12.7 mph 26.5 mph N/A   Clear
2:13 AM 35.6 °F 26.6 °F 23.0 °F 60% 29.97 in 10.0 mi West 13.8 mph 20.7 mph N/A   Clear
2:32 AM 33.8 °F 27.0 °F 23.0 °F 65% 29.97 in 10.0 mi West 8.1 mph - N/A   Clear
2:53 AM 33.8 °F 26.4 °F 23.0 °F 65% 29.98 in 10.0 mi West 9.2 mph - N/A   Clear
3:12 AM 33.8 °F 24.8 °F 23.0 °F 65% 29.98 in 10.0 mi West 12.7 mph 16.1 mph N/A   Clear
3:32 AM 33.8 °F 27.0 °F 23.0 °F 65% 29.98 in 10.0 mi West 8.1 mph - N/A   Clear
3:53 AM 32.0 °F 26.4 °F 23.0 °F 69% 29.98 in 10.0 mi WSW 5.8 mph - N/A   Clear
4:12 AM 32.0 °F 27.5 °F 23.0 °F 69% 29.98 in 10.0 mi WSW 4.6 mph - N/A   Clear
4:32 AM 32.0 °F 26.4 °F 23.0 °F 69% 29.98 in 10.0 mi WSW 5.8 mph - N/A   Clear
4:53 AM 30.2 °F 23.4 °F 23.0 °F 75% 29.98 in 10.0 mi WSW 6.9 mph - N/A   Clear
5:12 AM 30.2 °F 25.4 °F 23.0 °F 75% 29.98 in 10.0 mi SSW 4.6 mph - N/A   Clear
5:32 AM 30.2 °F 23.4 °F 23.0 °F 75% 29.98 in 10.0 mi West 6.9 mph - N/A   Clear
5:53 AM 30.2 °F 21.9 °F 21.2 °F 69% 29.98 in 10.0 mi West 9.2 mph - N/A   Clear
6:13 AM 32.0 °F 23.0 °F 21.2 °F 64% 29.99 in 10.0 mi West 11.5 mph 16.1 mph N/A   Clear
6:32 AM 30.2 °F 24.3 °F 21.2 °F 69% 29.99 in 10.0 mi West 5.8 mph - N/A   Clear
6:53 AM 30.2 °F 24.3 °F 21.2 °F 69% 29.99 in 10.0 mi West 5.8 mph - N/A   Clear
7:12 AM 32.0 °F 23.6 °F 21.2 °F 64% 29.99 in 10.0 mi West 10.4 mph - N/A   Clear
7:33 AM 33.8 °F 24.8 °F 21.2 °F 60% 29.99 in 10.0 mi West 12.7 mph 17.3 mph N/A   Clear
7:53 AM 33.8 °F 24.3 °F 21.2 °F 60% 30.00 in 10.0 mi West 13.8 mph 26.5 mph N/A   Clear
8:12 AM 33.8 °F 24.8 °F 21.2 °F 60% 30.00 in 10.0 mi West 12.7 mph 25.3 mph N/A   Clear
8:33 AM 33.8 °F 22.8 °F 19.4 °F 56% 30.01 in 10.0 mi West 18.4 mph 27.6 mph N/A   Clear
8:53 AM 35.6 °F 25.5 °F 19.4 °F 52% 30.01 in 10.0 mi WNW 17.3 mph 29.9 mph N/A   Clear
9:12 AM 35.6 °F 26.2 °F 17.6 °F 48% 30.01 in 10.0 mi West 15.0 mph 26.5 mph N/A   Clear
9:33 AM 35.6 °F 24.2 °F 15.8 °F 44% 30.01 in 10.0 mi WNW 21.9 mph 28.8 mph N/A   Clear
9:53 AM 37.4 °F 28.5 °F 17.6 °F 45% 30.01 in 10.0 mi West 15.0 mph 29.9 mph N/A   Clear
10:12 AM 37.4 °F 26.9 °F 17.6 °F 45% 30.01 in 10.0 mi West 20.7 mph 31.1 mph N/A   Clear
10:33 AM 37.4 °F 26.4 °F 15.8 °F 41% 30.01 in 10.0 mi WNW 23.0 mph 31.1 mph N/A   Scattered Clouds
10:53 AM 39.2 °F 30.5 °F 15.8 °F 39% 30.02 in 10.0 mi WNW 16.1 mph 31.1 mph N/A   Scattered Clouds
11:12 AM 39.2 °F 29.8 °F 15.8 °F 39% 30.02 in 10.0 mi WNW 18.4 mph 29.9 mph N/A   Clear
11:33 AM 41.0 °F 31.6 °F 15.8 °F 36% 30.02 in 10.0 mi West 20.7 mph 33.4 mph N/A   Clear
11:53 AM 42.8 °F 34.0 °F 14.0 °F 31% 30.02 in 10.0 mi West 20.7 mph 33.4 mph N/A   Clear
12:12 PM 42.8 °F 34.5 °F 14.0 °F 31% 30.02 in 10.0 mi WNW 18.4 mph 26.5 mph N/A   Clear
12:33 PM 42.8 °F 34.0 °F 14.0 °F 31% 30.01 in 10.0 mi WNW 20.7 mph 29.9 mph N/A   Clear
12:53 PM 44.6 °F 38.4 °F 14.0 °F 29% 30.01 in 10.0 mi WNW 12.7 mph 26.5 mph N/A   Scattered Clouds
1:12 PM 44.6 °F 36.6 °F 12.2 °F 27% 30.01 in 10.0 mi West 19.6 mph 33.4 mph N/A   Clear
1:33 PM 46.4 °F 38.5 °F 12.2 °F 25% 30.00 in 10.0 mi West 21.9 mph 32.2 mph N/A   Scattered Clouds
1:52 PM 46.4 °F 40.1 °F 12.2 °F 25% 29.99 in 10.0 mi WNW 15.0 mph 29.9 mph N/A   Scattered Clouds
2:12 PM 48.2 °F - 12.2 °F 24% 29.98 in 10.0 mi WNW 20.7 mph 36.8 mph N/A   Scattered Clouds
2:33 PM 48.2 °F - 12.2 °F 24% 29.97 in 10.0 mi West 19.6 mph 29.9 mph N/A   Scattered Clouds
2:52 PM 50.0 °F - 14.0 °F 24% 29.97 in 10.0 mi West 23.0 mph 29.9 mph N/A   Scattered Clouds
3:13 PM 48.2 °F - 12.2 °F 24% 29.96 in 10.0 mi West 16.1 mph 28.8 mph N/A   Scattered Clouds
3:32 PM 50.0 °F - 12.2 °F 22% 29.96 in 10.0 mi West 18.4 mph 32.2 mph N/A   Scattered Clouds
3:52 PM 50.0 °F - 12.2 °F 22% 29.95 in 10.0 mi West 21.9 mph 29.9 mph N/A   Scattered Clouds
4:13 PM 51.8 °F - 12.2 °F 21% 29.95 in 10.0 mi West 11.5 mph 25.3 mph N/A   Clear
4:33 PM 51.8 °F - 12.2 °F 21% 29.94 in 10.0 mi WNW 19.6 mph 27.6 mph N/A   Scattered Clouds
4:53 PM 50.0 °F - 14.0 °F 24% 29.94 in 10.0 mi West 13.8 mph 24.2 mph N/A   Scattered Clouds
5:13 PM 50.0 °F - 14.0 °F 24% 29.94 in 10.0 mi West 18.4 mph 24.2 mph N/A   Scattered Clouds
5:32 PM 48.2 °F - 15.8 °F 27% 29.94 in 10.0 mi WNW 10.4 mph 29.9 mph N/A   Mostly Cloudy
5:53 PM 48.2 °F - 15.8 °F 27% 29.94 in 10.0 mi WNW 8.1 mph 21.9 mph N/A   Overcast
6:12 PM 48.2 °F - 15.8 °F 27% 29.93 in 10.0 mi WNW 9.2 mph 18.4 mph N/A   Mostly Cloudy
6:32 PM 48.2 °F - 15.8 °F 27% 29.93 in 10.0 mi WNW 11.5 mph 16.1 mph N/A   Mostly Cloudy
6:53 PM 48.2 °F - 15.8 °F 27% 29.93 in 10.0 mi WNW 9.2 mph 18.4 mph N/A   Mostly Cloudy
7:13 PM 46.4 °F 41.5 °F 15.8 °F 29% 29.93 in 10.0 mi WNW 10.4 mph 18.4 mph N/A   Mostly Cloudy
7:32 PM 46.4 °F 42.4 °F 15.8 °F 29% 29.93 in 10.0 mi West 8.1 mph - N/A   Mostly Cloudy
7:53 PM 44.6 °F 40.2 °F 15.8 °F 31% 29.93 in 10.0 mi WNW 8.1 mph - N/A   Mostly Cloudy
8:12 PM 42.8 °F 39.3 °F 15.8 °F 34% 29.94 in 10.0 mi West 5.8 mph - N/A   Scattered Clouds
8:32 PM 42.8 °F 41.1 °F 15.8 °F 34% 29.94 in 10.0 mi West 3.5 mph - N/A   Clear
8:53 PM 39.2 °F 37.0 °F 15.8 °F 39% 29.94 in 10.0 mi WSW 3.5 mph - N/A   Clear
9:12 PM 37.4 °F 34.9 °F 17.6 °F 45% 29.94 in 10.0 mi WSW 3.5 mph - N/A   Clear
9:33 PM 37.4 °F 34.9 °F 19.4 °F 48% 29.93 in 10.0 mi SW 3.5 mph - N/A   Mostly Cloudy
9:52 PM 37.4 °F 34.9 °F 19.4 °F 48% 29.93 in 10.0 mi SW 3.5 mph - N/A   Mostly Cloudy
10:12 PM 37.4 °F 33.8 °F 19.4 °F 48% 29.93 in 10.0 mi SW 4.6 mph - N/A   Mostly Cloudy
10:33 PM 37.4 °F - 19.4 °F 48% 29.92 in 10.0 mi Calm Calm - N/A   Mostly Cloudy
10:53 PM 35.6 °F - 19.4 °F 52% 29.92 in 10.0 mi Calm Calm - N/A   Mostly Cloudy
11:13 PM 35.6 °F 31.7 °F 19.4 °F 52% 29.91 in 10.0 mi WSW 4.6 mph - N/A   Mostly Cloudy
11:32 PM 35.6 °F 31.7 °F 21.2 °F 56% 29.91 in 10.0 mi WSW 4.6 mph - N/A   Mostly Cloudy
11:52 PM 33.8 °F 28.6 °F 19.4 °F 56% 29.91 in 10.0 mi WSW 5.8 mph - N/A   Scattered Clouds